Theta_e
348 348 348 348 348 349 349 349 349 349 349 349 348 349 349 351 354 354 354 355 355 355 356 357 358 358 357 358 359 358 358 356 356 354 354 353 352 351 350 351 351 351
348 349 351 349 350 351 351 350 350 349 349 349 350 350 351 352 353 354 354 354 355 355 356 356 357 358 357 357 357 357 356 357 355 355 355 354 354 352 352 352 352 353
348 349 349 349 349 349 350 351 351 350 350 349 350 351 351 353 353 354 354 354 353 354 355 356 356 357 357 358 357 357 355 355 354 355 357 354 354 353 354 353 351 350
350 349 349 349 350 350 351 351 350 351 351 349 350 351 352 353 354 353 354 358 354 354 355 355 356 356 357 357 357 356 355 355 355 356 354 355 356 354 353 353 354 352
349 349 349 350 350 352 351 351 350 350 350 350 350 352 354 354 354 353 354 354 355 354 354 356 356 356 357 357 357 355 355 354 354 353 352 352 355 356 353 354 352 350
350 350 350 350 350 351 350 350 351 352 351 350 349 352 353 353 353 353 353 353 354 354 354 354 355 356 356 356 356 355 355 353 353 352 350 351 353 355 356 353 352 352
350 350 349 350 352 351 351 351 351 354 353 352 352 350 352 352 353 354 354 354 354 355 354 355 355 355 355 356 356 355 355 355 355 353 352 352 354 353 355 354 355 352
350 351 351 352 352 353 350 352 351 352 354 354 352 351 349 349 350 351 352 353 353 354 355 355 355 355 356 355 354 354 354 353 354 353 352 352 353 351 352 354 353 352
352 352 352 351 353 352 351 350 353 351 352 351 351 349 350 349 350 349 350 351 351 353 354 354 355 355 355 354 354 353 353 352 354 352 351 351 351 350 350 351 350 351
350 350 350 350 350 350 349 349 351 349 352 351 351 351 349 350 349 348 349 349 349 350 351 353 354 354 355 354 353 353 352 352 355 352 352 351 351 349 348 348 349 348
349 350 350 349 350 349 349 349 349 349 351 351 351 351 350 350 351 350 348 349 348 348 350 351 352 353 353 354 354 354 354 353 352 346 348 348 348 348 349 347 347 347
349 348 348 348 348 348 349 350 350 349 350 352 352 351 351 350 350 351 350 348 349 350 350 351 352 353 353 354 355 355 355 354 350 348 347 347 347 346 347 348 347 346
347 347 348 348 348 348 349 350 350 350 350 350 352 352 351 350 350 350 351 350 350 351 351 352 352 354 354 355 356 356 354 351 348 347 346 346 345 344 344 346 347 347
347 347 348 349 349 349 349 349 350 350 350 351 353 351 351 350 350 350 351 352 351 351 354 355 354 354 354 355 354 354 352 350 347 345 345 344 344 344 345 346 346 347
346 348 349 349 350 349 348 348 348 348 348 348 349 349 350 351 350 351 351 352 353 353 355 356 354 353 353 353 353 352 350 348 347 346 345 344 343 343 345 345 346 347
348 347 349 349 349 348 347 348 347 348 347 345 345 346 347 348 350 352 352 352 352 353 353 353 353 353 357 358 356 352 349 348 349 348 345 342 343 344 345 345 346 347
347 348 348 348 348 349 349 348 347 347 347 346 345 345 345 347 351 350 352 352 352 351 351 352 353 353 358 347 349 355 350 348 347 346 344 344 345 345 346 346 344 344
345 347 347 348 348 348 349 348 347 347 346 346 345 345 345 347 348 349 351 351 351 351 351 352 352 355 343 344 348 349 352 348 347 345 344 343 346 347 346 343 339 336
346 346 345 347 347 348 348 348 347 346 345 345 344 345 347 347 347 350 348 348 349 348 348 350 351 350 339 343 344 345 349 352 348 346 344 344 346 347 344 340 338 335
347 345 345 346 348 348 348 348 347 345 346 346 346 347 347 347 349 346 345 345 346 346 345 346 348 349 338 340 342 343 346 351 349 348 347 347 347 345 342 340 338 334
347 345 345 347 348 348 348 348 347 346 346 347 348 348 346 344 344 345 346 347 348 347 346 345 348 339 337 339 338 340 344 353 350 349 348 347 346 344 341 335 333 332
346 345 346 347 348 348 348 348 348 346 346 347 345 343 344 345 345 345 344 344 345 345 344 343 341 334 336 336 335 338 346 350 348 346 345 344 342 338 335 333 332 332
345 344 345 347 348 347 347 348 347 347 346 345 342 343 342 342 343 343 343 344 343 343 342 341 338 332 330 331 333 336 345 345 343 342 340 338 336 332 331 331 331 331
344 344 344 346 347 347 346 345 345 347 346 345 342 342 342 342 343 342 343 343 343 341 341 339 334 331 327 328 331 336 345 341 340 338 337 335 333 334 336 336 337 337
344 344 344 345 346 348 349 346 347 346 344 344 343 343 343 343 343 341 341 341 342 341 343 339 334 332 323 326 330 333 340 339 338 336 334 333 333 333 335 335 336 337
344 345 345 346 346 348 349 348 346 342 342 342 343 344 343 343 342 341 339 339 341 341 342 338 335 333 329 323 327 328 332 339 336 334 332 331 331 330 329 328 327 327
Wind_Speed
13 11 12 11 11 11 10 9 8 8 9 8 7 7 8 7 7 7 8 7 8 8 8 8 8 7 6 6 7 6 6 6 5 4 5 4 5 5 5 6 6 5
14 13 11 10 9 8 8 8 9 9 9 8 8 7 6 6 7 7 7 8 7 8 9 8 7 7 7 6 6 6 6 5 5 3 4 5 5 4 5 5 5 3
13 11 10 11 10 11 10 9 9 8 8 8 8 7 6 5 6 7 8 8 8 8 9 8 7 8 7 7 7 6 6 6 6 4 4 6 4 4 5 3 3 5
13 14 13 12 12 10 9 8 8 8 6 6 7 6 6 6 7 7 8 9 8 8 7 7 7 6 7 7 7 5 6 6 6 5 4 4 4 4 3 2 2 2
16 16 14 13 12 11 9 8 8 8 8 8 7 7 7 7 7 7 6 7 8 7 6 6 6 6 6 6 6 6 5 5 5 4 4 5 5 4 2 2 4 5
14 14 14 14 12 11 9 9 9 8 9 8 8 7 7 8 7 7 7 7 6 7 6 6 6 6 6 6 6 6 6 5 4 5 5 4 1 0 2 3 3 2
15 14 15 12 9 7 9 9 8 8 8 7 6 8 7 7 7 6 7 6 6 6 7 6 7 6 6 6 6 7 6 6 5 5 5 3 4 4 1 2 2 2
15 12 6 3 3 6 9 9 6 7 7 6 8 7 7 8 8 7 6 7 6 6 6 6 6 7 6 6 7 7 6 5 4 6 6 6 5 6 5 3 3 3
5 8 8 7 8 8 9 10 7 2 3 8 9 8 8 8 8 8 8 7 7 6 7 6 7 8 6 7 7 8 7 5 5 8 8 8 7 7 5 3 3 3
10 10 14 12 11 10 13 13 8 10 9 8 9 8 9 8 8 9 7 7 7 7 7 7 7 7 7 7 9 9 9 8 8 6 3 2 5 5 5 5 4 4
10 6 5 6 7 10 12 10 9 10 9 10 8 8 8 8 8 8 7 7 7 8 8 8 8 8 8 8 8 8 8 7 6 7 7 9 6 5 5 4 4 5
9 11 12 11 12 12 11 10 9 10 11 10 10 10 9 8 9 7 6 8 8 8 8 8 8 8 8 8 8 5 4 5 8 9 9 9 7 5 4 3 5 5
7 8 11 13 14 15 11 10 10 11 11 11 10 9 9 8 7 7 6 7 8 8 8 7 7 7 7 7 7 7 8 9 8 8 7 6 5 4 3 3 4 2
6 10 11 13 13 11 9 10 10 9 10 9 8 8 8 8 7 8 8 8 8 8 7 7 7 7 7 7 8 9 9 8 9 9 6 3 3 4 3 3 2 2
9 9 10 11 11 9 7 8 8 8 7 6 7 7 5 5 7 8 8 8 7 7 7 7 7 7 7 8 8 8 9 10 10 10 8 4 2 3 2 3 3 2
8 10 10 9 9 9 8 9 9 9 7 7 8 8 8 8 7 6 7 8 8 7 6 6 6 5 9 14 12 10 9 8 7 8 9 8 6 4 3 2 2 2
7 9 11 11 11 10 10 11 11 10 9 9 9 9 9 9 8 7 7 7 8 8 7 6 6 6 14 14 14 15 10 8 6 5 7 8 9 7 6 6 4 3
9 7 8 11 12 11 10 11 10 9 10 10 10 10 8 7 9 9 6 4 3 6 7 6 6 10 13 11 9 9 11 8 6 6 6 7 8 8 7 6 5 5
9 11 11 11 11 8 8 9 10 10 10 10 10 9 7 8 7 6 6 3 3 5 4 2 1 8 14 13 11 12 15 13 7 7 7 6 7 7 7 5 5 5
9 9 10 12 10 9 8 9 9 11 11 9 7 7 7 5 5 8 9 6 6 5 3 4 6 3 12 14 11 11 12 10 8 8 7 7 8 8 5 6 5 5
12 13 13 10 10 10 9 9 10 9 8 6 3 4 6 7 8 9 9 8 6 5 5 6 4 10 10 11 11 12 13 11 8 8 7 6 6 6 6 6 6 5
9 8 8 8 9 8 8 9 9 8 7 5 8 11 8 7 7 7 9 9 7 7 7 6 5 10 12 12 12 13 13 7 8 7 8 8 8 7 6 6 5 6
10 9 8 8 7 7 7 7 6 6 6 8 11 11 11 10 9 10 10 9 9 9 10 9 5 7 12 13 14 15 11 7 7 7 8 9 7 6 6 6 5 7
9 9 8 8 7 8 7 4 5 5 8 9 10 11 11 10 10 10 10 11 12 11 8 7 6 7 12 14 16 14 13 10 8 9 9 8 8 7 7 8 9 13
8 8 7 7 8 8 8 7 7 8 9 9 8 8 9 10 11 10 9 7 6 7 12 10 9 9 12 14 17 16 13 9 9 9 10 9 10 9 9 9 9 10
7 8 8 8 9 9 7 7 8 9 8 8 8 7 10 10 10 8 9 7 7 9 10 10 9 7 10 13 16 17 16 11 9 10 10 10 9 10 9 7 7 7
Wind_Direction
213 210 211 209 211 211 208 204 203 205 211 209 205 206 206 213 208 199 203 203 205 207 208 209 207 206 207 210 210 213 213 219 222 210 213 224 236 235 235 218 207 211
213 211 211 211 214 211 209 207 205 206 207 207 210 203 203 202 206 200 203 204 203 210 210 207 204 204 205 204 202 202 210 207 219 213 218 222 235 226 230 221 212 201
211 211 212 214 213 208 202 203 204 203 205 206 206 201 197 196 200 206 209 207 205 209 210 209 206 206 201 201 195 195 203 204 218 218 214 226 219 211 228 207 186 174
206 208 207 210 216 216 207 202 202 202 202 200 204 198 197 191 199 203 211 211 210 213 210 206 207 202 201 201 192 195 199 199 215 206 208 227 216 219 227 183 175 174
204 209 209 212 212 213 207 201 196 197 197 203 204 201 197 197 198 202 203 211 211 212 210 208 204 204 200 200 190 200 197 204 202 191 203 223 225 204 230 198 193 199
213 213 210 210 209 206 203 202 201 196 199 199 202 198 202 200 199 200 203 204 204 209 206 203 199 203 191 195 189 204 200 202 193 178 198 225 265 146 192 203 215 233
212 212 214 212 211 219 217 210 207 202 201 198 188 200 196 193 199 204 205 208 208 208 208 201 202 202 195 193 194 204 206 208 186 158 156 165 179 191 107 124 133 166
215 214 214 155 89 19 345 313 260 218 193 174 181 190 184 188 194 195 200 197 197 201 205 199 201 208 199 188 197 202 208 199 168 155 174 174 175 177 177 149 143 165
179 76 80 113 143 159 186 211 238 44 255 182 184 190 194 191 189 191 198 191 196 198 200 200 201 205 197 194 200 206 202 202 175 170 180 184 182 181 178 164 167 172
108 154 177 170 169 186 196 203 180 166 196 202 197 189 194 203 205 204 190 182 191 199 201 204 205 206 195 193 202 202 197 192 183 169 116 152 194 161 164 181 187 193
161 161 76 100 180 211 207 196 176 184 195 200 198 199 202 203 213 214 197 182 193 204 208 208 208 203 200 200 204 204 199 182 110 102 192 198 171 143 180 167 190 212
157 121 122 160 195 217 215 198 188 192 200 205 198 204 205 207 212 207 194 195 199 204 204 207 204 199 200 201 198 170 150 124 136 164 180 193 169 164 159 179 199 209
151 128 150 175 193 210 200 197 199 200 200 203 199 202 206 211 215 208 201 200 208 205 205 200 195 190 190 181 160 145 140 146 146 160 175 173 149 152 189 212 211 200
142 155 197 197 206 209 199 201 201 202 206 205 191 198 206 206 204 206 211 209 207 202 196 183 179 178 170 162 160 152 149 141 141 148 152 139 179 176 181 198 196 186
152 179 207 208 212 210 192 198 204 206 200 186 174 183 193 223 220 210 208 210 203 192 181 173 171 171 168 164 153 139 148 155 152 146 138 108 303 288 186 170 160 163
166 172 205 208 212 213 202 204 208 199 186 196 198 194 180 191 232 237 212 202 188 176 171 168 169 164 178 172 160 152 153 152 138 136 131 142 208 216 220 213 191 181
198 185 192 204 210 212 204 209 212 204 195 198 199 200 200 190 190 210 230 207 189 173 170 174 172 176 178 172 165 148 140 131 132 148 137 140 159 162 170 152 122 79
204 198 207 214 215 211 206 209 207 203 201 201 199 197 198 181 198 203 211 234 208 180 175 173 175 182 156 133 119 132 131 135 146 154 141 141 147 145 140 133 115 100
188 193 213 230 228 214 200 206 206 209 211 206 203 193 176 192 192 153 128 98 18 8 351 330 207 142 127 133 162 159 148 141 150 147 149 152 139 136 128 120 124 115
191 195 212 226 227 217 197 196 203 215 220 211 190 170 184 181 129 112 107 117 168 188 122 46 349 123 140 157 169 148 134 126 135 142 143 142 144 136 123 121 116 115
196 200 212 214 213 217 209 206 206 210 214 215 163 120 86 72 93 118 134 150 170 141 141 139 148 154 162 159 155 136 127 125 130 131 131 126 119 110 111 113 102 101
211 217 217 215 215 214 214 217 214 205 197 140 99 89 95 101 81 97 123 159 163 157 159 171 181 176 158 147 139 132 127 121 120 118 119 117 109 106 102 100 103 108
203 209 214 215 208 201 209 206 195 186 143 121 117 128 135 141 150 150 158 160 160 164 174 187 142 148 142 140 140 135 127 121 118 115 114 111 108 104 102 99 100 106
206 209 212 207 200 201 196 177 172 159 136 139 145 153 156 150 145 154 167 170 173 177 178 140 142 158 146 145 142 140 138 130 128 124 119 114 110 101 102 102 102 102
205 208 210 209 207 203 190 166 164 148 145 155 161 155 138 141 155 164 169 168 158 143 154 162 161 164 162 155 147 142 136 131 130 124 121 120 116 107 95 96 93 98
202 204 202 202 206 200 182 158 146 143 155 152 160 150 151 160 162 156 154 157 155 161 174 169 157 153 168 162 147 139 136 135 136 129 127 127 120 119 106 91 91 87